{"data":{"norad_id":43719,"intl_designator":"2018-096A","name":"HYSIS","alt_names":[],"object_type":"PAYLOAD","status":"ACTIVE","operator":null,"country":"IND","launch_date":"2018-11-29","launch_site_code":"SRILR","launch_vehicle":null,"mission":null,"orbit_class":"UNKNOWN","rcs_meters":null,"size_class":null,"mass_kg":null,"dimensions":null,"purposes":["earth_obs"],"wikipedia_slug":null,"has_3d_model":false,"image_url":null,"decayed_at":null,"tle_current":{"epoch":"2026-05-25T04:53:28.350240Z","epoch_age_seconds":61413,"freshness":"FRESH","line1":"1 43719U 18096A   26145.20380035  .00000713  00000+0  10436-3 0  9994","line2":"2 43719  97.9843 212.1301 0001161 120.4023 239.7303 14.78637009404029","mean_motion":14.78637009,"eccentricity":0.0001161,"inclination_deg":97.9843,"raan_deg":212.1301,"arg_perigee_deg":120.4023,"mean_anomaly_deg":239.7303,"bstar":0.00010436,"rev_number":40402,"period_min":97.386984853968,"perigee_km":632.81567335018,"apogee_km":634.44380558708,"semimajor_km":7011.7667394686,"source":"CELESTRAK","updated_at":"2026-05-25T13:38:12.831252Z"}}}